Wind_Speed
67 66 66 64 69 59 53 55 56 48 46 46 46 48 51 54 57 53 51 49 50 45 47 46 46 44 42 41 46 46 40 34 39 44 44 44 42 41
65 62 67 63 56 61 60 57 59 57 54 53 53 53 52 57 58 57 54 49 52 48 46 48 46 52 47 47 47 44 45 40 37 39 45 46 45 47
56 64 65 67 73 70 63 63 59 55 57 60 59 59 57 52 48 46 49 50 56 50 56 53 52 55 52 48 47 44 44 44 38 40 40 46 46 46
53 54 55 57 63 68 71 63 60 63 61 63 58 55 58 60 59 53 54 52 58 61 61 56 58 57 55 48 44 46 46 47 42 38 39 41 47 44
72 64 69 65 63 63 63 56 53 56 58 57 62 62 60 61 63 63 59 61 65 66 63 61 60 55 57 52 45 47 47 49 46 39 42 42 40 48
67 73 79 72 69 68 68 65 66 64 64 64 64 66 65 71 70 67 68 69 67 66 67 63 61 55 61 57 52 45 52 45 45 41 41 43 43 41
76 87 87 87 82 82 75 69 73 67 69 70 75 76 79 74 75 75 75 77 75 75 73 72 71 69 68 64 57 58 56 54 49 46 42 45 46 45
87 77 88 91 87 90 88 79 80 83 89 87 88 85 88 86 82 83 81 82 82 81 78 78 78 76 68 64 64 61 62 62 62 50 49 47 49 50
84 90 94 86 88 90 93 91 92 95 98 95 96 93 91 88 85 82 85 82 84 82 79 76 72 62 63 66 64 64 67 64 66 53 52 48 50 52
87 92 96 95 98 101 97 95 97 100 104 102 102 100 99 95 93 83 79 75 79 78 79 73 66 63 62 64 67 67 68 69 61 51 50 49 50 52
107 103 99 102 104 102 100 103 106 105 106 108 104 100 100 102 93 82 79 78 76 73 69 69 62 62 60 66 68 67 68 65 55 51 50 50 51 52
109 107 104 101 105 108 106 109 110 111 115 114 112 110 104 103 92 81 79 77 71 68 66 65 67 66 69 68 64 64 61 55 52 49 47 50 51 51
111 107 106 109 114 114 114 112 110 112 115 118 110 102 93 79 75 75 76 77 74 72 71 71 68 70 60 62 63 66 59 57 57 52 47 49 51 55
119 115 113 116 114 111 111 109 112 112 109 104 100 95 76 74 74 78 77 73 70 68 62 67 68 69 61 58 65 67 59 56 59 52 49 52 53 55
114 117 121 121 116 113 110 115 119 113 109 107 83 70 70 73 77 74 72 69 68 67 66 71 65 68 67 65 66 61 57 54 51 50 52 54 56 56
121 123 124 122 120 118 118 119 119 116 97 79 77 78 79 81 76 72 65 64 61 61 60 61 60 62 61 58 61 61 57 52 53 55 56 58 59 60
125 124 123 124 124 123 122 123 115 102 90 85 84 84 80 81 73 69 64 57 52 53 51 52 55 52 56 62 62 60 58 56 57 59 59 61 61 62
124 126 130 131 131 126 118 112 101 95 95 92 90 89 90 85 72 67 64 58 52 51 55 56 58 59 51 60 67 63 62 58 58 60 63 64 66 66
128 130 135 134 126 120 105 101 103 105 106 101 100 101 104 91 83 71 67 64 55 55 58 58 56 59 62 63 75 66 69 67 68 67 68 69 71 71
118 115 112 113 109 106 105 105 105 106 102 99 98 101 99 97 91 83 71 67 60 61 62 59 56 61 66 65 71 72 73 73 72 72 72 76 77 77
104 106 106 108 109 110 111 112 113 114 110 104 101 95 92 92 92 90 87 71 67 66 73 65 60 62 66 71 70 72 71 74 76 78 80 80 82 79
105 106 105 104 104 104 104 105 106 104 105 105 102 99 95 94 93 91 83 77 73 72 79 75 72 74 76 77 84 82 77 77 77 81 83 87 86 86
100 101 104 103 103 101 99 97 96 95 91 89 88 85 85 87 87 85 81 71 75 79 80 89 85 87 82 84 81 79 80 82 83 84 87 90 89 88
Wind_Direction
269 265 263 264 263 262 262 267 272 270 272 271 264 267 270 275 275 282 288 292 291 296 302 308 308 318 320 323 330 330 319 307 290 282 279 279 276 279
264 262 262 260 262 266 261 263 268 270 271 274 273 272 269 268 273 274 278 286 282 292 299 300 305 308 311 316 317 319 321 309 306 294 277 278 279 274
270 267 262 265 259 264 259 262 264 267 266 272 273 275 273 270 274 274 273 277 278 285 293 292 299 303 306 308 310 312 315 308 304 308 294 276 275 278
274 264 258 261 258 259 262 264 264 262 259 265 271 269 268 271 270 267 271 273 273 280 283 288 292 298 303 300 303 307 310 312 298 301 307 289 273 280
251 255 262 261 264 267 266 265 269 267 266 266 269 279 276 277 268 268 267 267 269 271 275 282 285 291 295 294 298 303 303 308 296 300 299 307 292 273
239 257 258 256 263 265 262 266 270 270 269 272 268 275 289 283 271 268 261 264 265 270 271 275 281 282 290 290 293 296 302 299 294 292 297 299 301 298
246 253 263 268 264 263 266 263 264 270 271 274 272 276 283 287 276 268 265 261 262 264 269 274 278 283 287 285 279 293 296 301 292 289 290 294 299 296
251 258 262 263 266 267 268 267 271 274 270 276 279 284 282 282 281 272 267 264 261 264 268 270 274 279 278 275 278 288 294 293 296 285 285 289 294 293
246 254 252 258 258 261 267 267 268 272 274 277 278 284 285 284 288 277 272 269 266 268 270 272 271 271 268 275 282 286 290 292 293 278 278 282 288 291
245 251 251 253 256 261 264 265 266 272 275 278 281 285 282 283 288 275 268 268 267 267 268 269 268 265 274 277 279 283 288 289 283 268 277 281 286 286
248 248 249 253 256 259 261 264 267 271 276 276 278 283 285 282 283 276 271 267 268 266 266 264 263 264 267 265 277 283 284 283 273 269 275 278 287 287
243 247 249 252 255 257 262 263 266 271 273 277 279 285 288 283 275 273 271 267 267 267 265 264 261 263 266 273 275 277 280 275 265 268 274 279 284 285
241 245 249 252 257 259 260 265 269 275 275 278 281 284 280 276 272 272 272 273 272 268 267 265 263 264 267 264 267 274 271 267 263 264 271 280 280 285
244 248 250 255 258 261 263 267 272 276 276 278 280 279 273 274 269 271 272 272 269 268 269 270 262 260 257 255 261 269 264 266 264 267 275 276 279 283
250 253 254 257 261 263 265 265 269 275 277 276 276 273 278 282 275 274 272 271 268 266 260 257 257 255 255 255 258 258 260 264 263 266 273 275 278 284
252 256 258 260 260 264 264 267 269 275 275 270 272 278 282 283 278 274 271 268 265 261 258 256 251 249 248 252 252 253 260 261 260 265 271 273 276 280
251 256 260 260 263 263 266 270 273 271 271 274 275 279 281 283 276 272 269 264 264 260 255 253 244 241 243 244 250 258 261 258 261 264 271 272 276 278
254 256 257 260 260 262 267 267 267 268 272 273 276 277 281 277 272 266 264 261 261 252 246 237 238 235 232 244 247 250 249 253 259 264 268 270 272 276
255 256 257 260 261 264 265 265 266 267 269 271 272 277 280 271 262 260 258 255 254 246 242 239 230 232 240 248 252 250 250 256 262 264 267 270 272 274
255 256 258 261 263 264 264 265 265 266 268 268 270 271 267 264 263 256 255 253 248 237 232 228 237 238 244 249 248 249 253 256 262 262 266 268 272 273
260 262 263 264 264 264 265 265 265 266 267 268 269 265 263 258 257 256 257 253 244 236 228 227 230 234 239 238 246 252 255 259 261 262 266 269 271 273
261 261 261 261 262 264 263 263 262 262 264 265 263 263 261 259 257 260 261 259 245 238 228 226 227 233 237 241 244 250 255 254 259 265 267 270 273 275
262 262 263 263 263 263 264 264 264 265 265 263 263 262 260 257 256 256 255 256 246 238 233 231 231 235 236 239 244 252 253 254 258 262 267 269 273 274
Height
10610 10612 10613 10612 10614 10617 10621 10623 10626 10626 10627 10630 10633 10629 10628 10628 10627 10626 10625 10625 10625 10623 10621 10619 10618 10616 10615 10611 10609 10607 10603 10599 10596 10594 10593 10593 10593 10592
10595 10598 10600 10600 10601 10604 10607 10609 10612 10614 10613 10616 10619 10619 10619 10618 10616 10618 10617 10615 10615 10615 10611 10610 10609 10607 10605 10603 10601 10597 10593 10590 10586 10583 10582 10581 10581 10581
10579 10582 10585 10586 10588 10590 10593 10596 10599 10603 10604 10603 10606 10606 10606 10604 10603 10604 10604 10604 10602 10603 10603 10600 10599 10597 10594 10593 10590 10586 10584 10581 10577 10574 10570 10569 10568 10568
10562 10564 10568 10570 10571 10573 10575 10580 10586 10588 10594 10594 10592 10594 10595 10593 10593 10591 10591 10593 10592 10589 10589 10589 10587 10586 10583 10581 10579 10576 10574 10570 10568 10564 10561 10558 10557 10556
10555 10552 10550 10553 10558 10558 10563 10568 10570 10571 10576 10583 10583 10580 10581 10582 10581 10579 10577 10576 10576 10576 10577 10576 10575 10574 10573 10571 10568 10565 10563 10561 10558 10554 10550 10548 10545 10545
10538 10537 10533 10539 10544 10545 10548 10552 10555 10557 10561 10566 10570 10569 10567 10567 10565 10563 10561 10561 10561 10561 10561 10563 10563 10562 10562 10559 10555 10553 10552 10549 10548 10545 10541 10538 10536 10533
10519 10518 10517 10518 10524 10529 10534 10535 10539 10543 10547 10549 10551 10554 10554 10551 10550 10547 10545 10543 10545 10547 10547 10546 10548 10549 10548 10546 10543 10542 10540 10537 10535 10534 10531 10528 10525 10523
10500 10500 10504 10502 10503 10509 10514 10518 10521 10524 10527 10528 10530 10534 10535 10535 10530 10530 10531 10527 10531 10529 10530 10532 10534 10534 10530 10528 10528 10528 10527 10523 10522 10519 10519 10516 10513 10511
10484 10485 10485 10485 10487 10491 10497 10499 10500 10500 10502 10506 10509 10511 10512 10510 10510 10512 10508 10508 10512 10511 10511 10513 10513 10515 10512 10513 10511 10511 10511 10510 10507 10505 10504 10502 10500 10498
10464 10465 10466 10467 10469 10472 10475 10478 10479 10480 10483 10488 10491 10492 10491 10489 10489 10486 10487 10488 10488 10491 10492 10495 10494 10496 10496 10493 10494 10494 10494 10492 10493 10490 10489 10487 10486 10483
10438 10440 10443 10447 10450 10451 10458 10460 10462 10467 10463 10464 10469 10469 10469 10468 10464 10464 10466 10462 10469 10471 10471 10473 10476 10476 10476 10477 10475 10475 10474 10475 10474 10473 10473 10472 10470 10467
10419 10422 10425 10428 10432 10434 10437 10440 10444 10448 10445 10443 10445 10446 10445 10444 10441 10439 10440 10441 10445 10448 10449 10450 10455 10456 10456 10459 10458 10457 10457 10457 10458 10459 10459 10458 10455 10452
10398 10402 10403 10405 10409 10414 10416 10420 10425 10424 10422 10421 10422 10424 10424 10421 10417 10416 10417 10416 10423 10425 10427 10429 10434 10435 10437 10441 10439 10440 10441 10441 10441 10442 10443 10442 10440 10438
10373 10376 10380 10384 10389 10392 10394 10397 10400 10400 10401 10402 10401 10403 10401 10397 10396 10395 10396 10395 10398 10400 10408 10406 10412 10412 10416 10420 10423 10423 10425 10425 10425 10426 10426 10426 10425 10422
10352 10355 10359 10363 10367 10371 10375 10377 10380 10379 10380 10381 10383 10379 10376 10375 10374 10376 10374 10375 10376 10377 10383 10386 10388 10391 10394 10400 10404 10406 10408 10408 10408 10409 10409 10409 10408 10407
10334 10335 10336 10339 10344 10349 10354 10356 10357 10357 10359 10358 10360 10358 10355 10355 10354 10353 10354 10355 10355 10356 10358 10363 10367 10370 10375 10381 10384 10387 10390 10392 10391 10392 10393 10393 10392 10391
10312 10314 10315 10316 10321 10325 10329 10329 10331 10332 10332 10333 10335 10337 10336 10334 10332 10333 10334 10336 10336 10337 10339 10345 10350 10353 10357 10363 10366 10370 10372 10374 10375 10375 10376 10376 10375 10374
10289 10292 10290 10293 10296 10300 10303 10302 10304 10305 10305 10307 10310 10311 10313 10316 10313 10312 10315 10317 10320 10320 10324 10325 10332 10335 10339 10345 10346 10351 10353 10356 10357 10358 10359 10359 10358 10357
10263 10264 10266 10269 10274 10276 10273 10274 10276 10278 10280 10281 10282 10286 10287 10289 10292 10291 10293 10297 10301 10303 10307 10310 10315 10320 10323 10326 10327 10332 10334 10335 10337 10339 10339 10339 10338 10337
10238 10238 10238 10240 10241 10242 10243 10245 10246 10249 10253 10255 10259 10260 10259 10261 10265 10268 10270 10276 10280 10285 10288 10292 10295 10301 10305 10307 10309 10311 10313 10316 10318 10318 10318 10317 10317 10317
10204 10204 10204 10206 10208 10209 10211 10214 10216 10219 10221 10223 10226 10228 10231 10234 10236 10238 10244 10251 10257 10263 10266 10270 10276 10281 10284 10286 10287 10291 10295 10296 10295 10295 10295 10294 10295 10297
10172 10172 10174 10175 10176 10177 10179 10181 10182 10184 10187 10189 10193 10196 10200 10203 10207 10211 10217 10223 10233 10237 10243 10248 10253 10258 10262 10265 10267 10270 10275 10277 10275 10272 10273 10273 10274 10273
10134 10136 10138 10139 10141 10143 10144 10147 10149 10151 10154 10157 10160 10163 10167 10169 10175 10182 10189 10194 10205 10210 10218 10225 10227 10232 10239 10241 10245 10247 10251 10254 10254 10253 10252 10250 10249 10250